Location: Bühlhof
(48.7849°N, 8.6361°E)
Time: 03:42:08
(UTC+00:00)

Resurs 01 Rocket - Visible Passes

Search period start: 21 April 2026 00:00
Search period end: 01 May 2026 00:00
Orbit: 625 x 637 km, 97.7° (Epoch: 20 April)

Date Brightness Start Highest point End Pass type
(mag) Time Alt. Az. Time Alt. Az. Time Alt. Az.
21 Apr 4.3 19:18:20 10° SW 19:21:36 20° W 19:24:53 10° NW visible
22 Apr 4.6 19:40:26 10° WSW 19:42:30 13° W 19:44:34 10° WNW visible
25 Apr 3.9 19:04:06 10° SSW 19:07:48 27° W 19:11:32 10° NW visible
26 Apr 4.4 19:25:44 10° SW 19:28:39 17° W 19:31:36 10° NW visible
27 Apr 4.8 19:48:23 10° WSW 19:49:35 11° W 19:50:46 10° WNW visible
30 Apr 4.1 19:11:21 10° SW 19:14:49 23° W 19:18:20 10° NW visible
